Year,Month,Day,Hour,Minute,Value (Times are PST for temperature in C)
2009,08,11,08,43,14.80
2009,08,11,08,44,14.90
2009,08,11,08,45,15.00
2009,08,11,08,46,15.00
2009,08,11,08,47,15.00
2009,08,11,08,48,15.00
2009,08,11,08,49,15.00
2009,08,11,08,50,15.00
2009,08,11,08,51,15.00
2009,08,11,08,52,15.00
2009,08,11,08,53,15.00
2009,08,11,08,54,15.00
2009,08,11,08,55,15.00
2009,08,11,08,56,15.00
2009,08,11,08,57,15.00
2009,08,11,08,58,15.10
2009,08,11,08,59,15.20
2009,08,11,09,00,15.20
2009,08,11,09,01,15.20
2009,08,11,09,02,15.30
2009,08,11,09,03,15.30
2009,08,11,09,04,15.40
2009,08,11,09,05,15.40
2009,08,11,09,06,15.40
2009,08,11,09,07,15.50
2009,08,11,09,08,15.60
2009,08,11,09,09,15.60
2009,08,11,09,10,15.70
2009,08,11,09,11,15.70
2009,08,11,09,12,15.70
2009,08,11,09,13,15.70
2009,08,11,09,14,15.80
2009,08,11,09,15,15.90
2009,08,11,09,16,16.00
2009,08,11,09,17,16.10
2009,08,11,09,18,16.20
2009,08,11,09,19,16.20
2009,08,11,09,20,16.30
2009,08,11,09,21,16.30
2009,08,11,09,22,16.40
2009,08,11,09,23,16.40
2009,08,11,09,24,16.40
2009,08,11,09,25,16.50
2009,08,11,09,26,16.50
2009,08,11,09,27,16.50
2009,08,11,09,28,16.50
2009,08,11,09,29,16.50
2009,08,11,09,30,16.50
2009,08,11,09,31,16.50
2009,08,11,09,32,16.50
2009,08,11,09,33,16.50
2009,08,11,09,34,16.40
2009,08,11,09,35,16.40
2009,08,11,09,36,16.40
2009,08,11,09,37,16.40
2009,08,11,09,38,16.40
2009,08,11,09,39,16.40
2009,08,11,09,40,16.50
2009,08,11,09,41,16.50
2009,08,11,09,42,16.60
2009,08,11,09,43,16.60
2009,08,11,09,44,16.70
2009,08,11,09,45,16.70
2009,08,11,09,46,16.70
2009,08,11,09,47,16.70
2009,08,11,09,48,16.70
2009,08,11,09,49,16.80
2009,08,11,09,50,16.80
2009,08,11,09,51,16.80
2009,08,11,09,52,16.70
2009,08,11,09,53,16.80
2009,08,11,09,54,16.80
2009,08,11,09,55,16.80
2009,08,11,09,56,16.80
2009,08,11,09,57,16.80
2009,08,11,09,58,16.90
2009,08,11,09,59,16.90
2009,08,11,10,00,16.90
2009,08,11,10,01,16.90
2009,08,11,10,02,16.80
2009,08,11,10,03,16.80
2009,08,11,10,04,16.80
2009,08,11,10,05,16.80
2009,08,11,10,06,16.90
2009,08,11,10,07,17.00
2009,08,11,10,08,17.10
2009,08,11,10,09,17.20
2009,08,11,10,10,17.30
2009,08,11,10,11,17.30
2009,08,11,10,12,17.30
2009,08,11,10,13,17.40
2009,08,11,10,14,17.40
2009,08,11,10,15,17.40
2009,08,11,10,16,17.40
2009,08,11,10,17,17.40
2009,08,11,10,18,17.30
2009,08,11,10,19,17.30
2009,08,11,10,20,17.30
2009,08,11,10,21,17.40
2009,08,11,10,22,17.40
2009,08,11,10,23,17.40
2009,08,11,10,24,17.40
2009,08,11,10,25,17.40
2009,08,11,10,26,17.40
2009,08,11,10,27,17.40
2009,08,11,10,28,17.40
2009,08,11,10,29,17.30
2009,08,11,10,30,17.30
2009,08,11,10,31,17.30
2009,08,11,10,32,17.30
2009,08,11,10,33,17.20
2009,08,11,10,34,17.20
2009,08,11,10,35,17.20
2009,08,11,10,36,17.20
2009,08,11,10,37,17.20
2009,08,11,10,38,17.30
2009,08,11,10,39,17.30
2009,08,11,10,40,17.40
2009,08,11,10,41,17.40
2009,08,11,10,42,17.50
2009,08,11,10,43,17.50
2009,08,11,10,44,17.60
2009,08,11,10,45,17.60
2009,08,11,10,46,17.70
2009,08,11,10,47,17.70
2009,08,11,10,48,17.80
2009,08,11,10,49,17.80
2009,08,11,10,50,17.90
2009,08,11,10,51,18.00
2009,08,11,10,52,18.10
2009,08,11,10,53,18.20
2009,08,11,10,54,18.10
2009,08,11,10,55,18.10
2009,08,11,10,56,18.00
2009,08,11,10,57,18.00
2009,08,11,10,58,17.90
2009,08,11,10,59,17.80
2009,08,11,11,00,17.80
2009,08,11,11,01,17.80
2009,08,11,11,02,17.70
2009,08,11,11,03,17.80
2009,08,11,11,04,17.80
2009,08,11,11,05,17.80
2009,08,11,11,06,17.80
2009,08,11,11,07,17.90
2009,08,11,11,08,18.00
2009,08,11,11,09,18.10
2009,08,11,11,10,18.20
2009,08,11,11,11,18.30
2009,08,11,11,12,18.30
2009,08,11,11,13,18.40
2009,08,11,11,14,18.40
2009,08,11,11,15,18.50
2009,08,11,11,16,18.50
2009,08,11,11,17,18.60
2009,08,11,11,18,18.60
2009,08,11,11,19,18.60
2009,08,11,11,20,18.50
2009,08,11,11,21,18.50
2009,08,11,11,22,18.50
2009,08,11,11,23,18.50
2009,08,11,11,24,18.60
2009,08,11,11,25,18.60
2009,08,11,11,26,18.60
2009,08,11,11,27,18.70
2009,08,11,11,28,18.80
2009,08,11,11,29,18.80
2009,08,11,11,30,18.80
2009,08,11,11,31,18.80
2009,08,11,11,32,18.80
2009,08,11,11,33,18.80
2009,08,11,11,34,18.90
2009,08,11,11,35,19.00
2009,08,11,11,36,19.10
2009,08,11,11,37,19.20
2009,08,11,11,38,19.20
2009,08,11,11,39,19.20
2009,08,11,11,40,19.30
2009,08,11,11,41,19.40
2009,08,11,11,42,19.40
2009,08,11,11,43,19.50
2009,08,11,11,44,19.50
2009,08,11,11,45,19.60
2009,08,11,11,46,19.60
2009,08,11,11,47,19.60
2009,08,11,11,48,19.60
2009,08,11,11,49,19.60
2009,08,11,11,50,19.70
2009,08,11,11,51,19.80
2009,08,11,11,52,19.80
2009,08,11,11,53,19.80
2009,08,11,11,54,19.90
2009,08,11,11,55,19.90
2009,08,11,11,56,19.90
2009,08,11,11,57,19.80
2009,08,11,11,58,19.80
2009,08,11,11,59,19.80
2009,08,11,12,00,19.90
2009,08,11,12,01,19.90
2009,08,11,12,02,19.90
2009,08,11,12,03,20.00
2009,08,11,12,04,20.10
2009,08,11,12,05,20.20
2009,08,11,12,06,20.30
2009,08,11,12,07,20.30
2009,08,11,12,08,20.40
2009,08,11,12,09,20.50
2009,08,11,12,10,20.50
2009,08,11,12,11,20.60
2009,08,11,12,12,20.60
2009,08,11,12,13,20.60
2009,08,11,12,14,20.50
2009,08,11,12,15,20.40
2009,08,11,12,16,20.40
2009,08,11,12,17,20.40
2009,08,11,12,18,20.40
2009,08,11,12,19,20.50
2009,08,11,12,20,20.40
2009,08,11,12,21,20.40
2009,08,11,12,22,20.40
2009,08,11,12,23,20.50
2009,08,11,12,24,20.50
2009,08,11,12,25,20.50
2009,08,11,12,26,20.50
2009,08,11,12,27,20.50
2009,08,11,12,28,20.60
2009,08,11,12,29,20.70
2009,08,11,12,30,20.90
2009,08,11,12,31,20.90
2009,08,11,12,32,20.90
2009,08,11,12,33,20.90
2009,08,11,12,34,20.90
2009,08,11,12,35,20.90
2009,08,11,12,36,20.90
2009,08,11,12,37,20.90
2009,08,11,12,38,21.00
2009,08,11,12,39,21.10
2009,08,11,12,40,21.10
2009,08,11,12,41,21.10
2009,08,11,12,42,21.10
2009,08,11,12,43,21.10
2009,08,11,12,44,21.10
2009,08,11,12,45,21.00
2009,08,11,12,46,20.90
2009,08,11,12,47,20.60
2009,08,11,12,48,20.50
2009,08,11,12,49,20.40
2009,08,11,12,50,20.50
2009,08,11,12,51,20.50
2009,08,11,12,52,20.60
2009,08,11,12,53,20.60
2009,08,11,12,54,20.70
2009,08,11,12,55,20.90
2009,08,11,12,56,21.00
2009,08,11,12,57,21.20
2009,08,11,12,58,21.30
2009,08,11,12,59,21.30
2009,08,11,13,00,21.40
2009,08,11,13,01,21.40
2009,08,11,13,02,21.60
2009,08,11,13,03,21.70
2009,08,11,13,04,21.80
2009,08,11,13,05,21.90
2009,08,11,13,06,22.00
2009,08,11,13,07,21.80
2009,08,11,13,08,21.80
2009,08,11,13,09,21.70
2009,08,11,13,10,21.70
2009,08,11,13,11,21.60
2009,08,11,13,12,21.60
2009,08,11,13,13,21.50
2009,08,11,13,14,21.40
2009,08,11,13,15,21.30
2009,08,11,13,16,21.30
2009,08,11,13,17,21.20
2009,08,11,13,18,21.10
2009,08,11,13,19,21.00
2009,08,11,13,20,20.90
2009,08,11,13,21,20.80
2009,08,11,13,22,20.80
2009,08,11,13,23,20.70
2009,08,11,13,24,20.70
2009,08,11,13,25,20.70
2009,08,11,13,26,20.80
2009,08,11,13,27,20.80
2009,08,11,13,28,20.80
2009,08,11,13,29,20.90
2009,08,11,13,30,20.90
2009,08,11,13,31,20.90
2009,08,11,13,32,20.90
2009,08,11,13,33,21.00
2009,08,11,13,34,21.10
2009,08,11,13,35,21.10
2009,08,11,13,36,21.10
2009,08,11,13,37,21.10
2009,08,11,13,38,21.10
2009,08,11,13,39,21.10
2009,08,11,13,40,21.10
2009,08,11,13,41,21.00
2009,08,11,13,42,21.00
2009,08,11,13,43,21.00
2009,08,11,13,44,21.00
2009,08,11,13,45,21.00
2009,08,11,13,46,21.00
2009,08,11,13,47,21.00
2009,08,11,13,48,21.00
2009,08,11,13,49,20.90
2009,08,11,13,50,20.90
2009,08,11,13,51,20.90
2009,08,11,13,52,20.90
2009,08,11,13,53,20.90
2009,08,11,13,54,20.90
2009,08,11,13,55,20.90
2009,08,11,13,56,20.90
2009,08,11,13,57,20.90
2009,08,11,13,58,21.00
2009,08,11,13,59,21.00
2009,08,11,14,00,21.00
2009,08,11,14,01,21.00
2009,08,11,14,02,20.90
2009,08,11,14,03,21.00
2009,08,11,14,04,21.00
2009,08,11,14,05,21.00
2009,08,11,14,06,21.00
2009,08,11,14,07,20.90
2009,08,11,14,08,20.90
2009,08,11,14,09,20.80
2009,08,11,14,10,20.80
2009,08,11,14,11,20.70
2009,08,11,14,12,20.70
2009,08,11,14,13,20.60
2009,08,11,14,14,20.60
2009,08,11,14,15,20.60
2009,08,11,14,16,20.60
2009,08,11,14,17,20.60
2009,08,11,14,18,20.50
2009,08,11,14,19,20.50
2009,08,11,14,20,20.50
2009,08,11,14,21,20.60
2009,08,11,14,22,20.60
2009,08,11,14,23,20.60
2009,08,11,14,24,20.60
2009,08,11,14,25,20.60
2009,08,11,14,26,20.60
2009,08,11,14,27,20.60
2009,08,11,14,28,20.50
2009,08,11,14,29,20.50
2009,08,11,14,30,20.40
2009,08,11,14,31,20.40
2009,08,11,14,32,20.40
2009,08,11,14,33,20.40
2009,08,11,14,34,20.40
2009,08,11,14,35,20.50
2009,08,11,14,36,20.60
2009,08,11,14,37,20.60
2009,08,11,14,38,20.70
2009,08,11,14,39,20.80
2009,08,11,14,40,20.80
2009,08,11,14,41,20.80
2009,08,11,14,42,20.90
2009,08,11,14,43,20.90
2009,08,11,14,44,21.00
2009,08,11,14,45,21.10
2009,08,11,14,46,21.20
2009,08,11,14,47,21.20
2009,08,11,14,48,21.30
2009,08,11,14,49,21.30
2009,08,11,14,50,21.40
2009,08,11,14,51,21.50
2009,08,11,14,52,21.50
2009,08,11,14,53,21.60
2009,08,11,14,54,21.60
2009,08,11,14,55,21.50
2009,08,11,14,56,21.40
2009,08,11,14,57,21.40
2009,08,11,14,58,21.40
2009,08,11,14,59,21.40
2009,08,11,15,00,21.40
2009,08,11,15,01,21.40
2009,08,11,15,02,21.40
2009,08,11,15,03,21.30
2009,08,11,15,04,21.20
2009,08,11,15,05,21.20
2009,08,11,15,06,21.10
2009,08,11,15,07,21.10
2009,08,11,15,08,21.10
2009,08,11,15,09,21.10
2009,08,11,15,10,21.20
2009,08,11,15,11,21.20
2009,08,11,15,12,21.30
2009,08,11,15,13,21.30
2009,08,11,15,14,21.30
2009,08,11,15,15,21.40
2009,08,11,15,16,21.40
2009,08,11,15,17,21.50
2009,08,11,15,18,21.50
2009,08,11,15,19,21.60
2009,08,11,15,20,21.60
2009,08,11,15,21,21.60
2009,08,11,15,22,21.50
2009,08,11,15,23,21.40
2009,08,11,15,24,21.30
2009,08,11,15,25,21.20
2009,08,11,15,26,21.20
2009,08,11,15,27,21.20
2009,08,11,15,28,21.20
2009,08,11,15,29,21.20
2009,08,11,15,30,21.20
2009,08,11,15,31,21.10
2009,08,11,15,32,21.00
2009,08,11,15,33,20.90
2009,08,11,15,34,20.90
2009,08,11,15,35,20.80
2009,08,11,15,36,20.80
2009,08,11,15,37,20.80
2009,08,11,15,38,20.80
2009,08,11,15,39,20.80
2009,08,11,15,40,20.80
2009,08,11,15,41,20.80
2009,08,11,15,42,20.70
2009,08,11,15,43,20.60
2009,08,11,15,44,20.50
2009,08,11,15,45,20.40
2009,08,11,15,46,20.40
2009,08,11,15,47,20.40
2009,08,11,15,48,20.30
2009,08,11,15,49,20.30
2009,08,11,15,50,20.30
2009,08,11,15,51,20.30
2009,08,11,15,52,20.30
2009,08,11,15,53,20.30
2009,08,11,15,54,20.30
2009,08,11,15,55,20.20
2009,08,11,15,56,20.10
2009,08,11,15,57,20.10
2009,08,11,15,58,20.10
2009,08,11,15,59,20.10
2009,08,11,16,00,20.10
2009,08,11,16,01,20.00
2009,08,11,16,02,20.00
2009,08,11,16,03,20.10
2009,08,11,16,04,20.10
2009,08,11,16,05,20.10
2009,08,11,16,06,20.10
2009,08,11,16,07,20.10
2009,08,11,16,08,20.10
2009,08,11,16,09,20.10
2009,08,11,16,10,20.00
2009,08,11,16,11,20.10
2009,08,11,16,12,20.10
2009,08,11,16,13,20.10
2009,08,11,16,14,20.10
2009,08,11,16,15,20.10
2009,08,11,16,16,20.10
2009,08,11,16,17,20.20
2009,08,11,16,18,20.20
2009,08,11,16,19,20.20
2009,08,11,16,20,20.20
2009,08,11,16,21,20.30
2009,08,11,16,22,20.30
2009,08,11,16,23,20.30
2009,08,11,16,24,20.30
2009,08,11,16,25,20.30
2009,08,11,16,26,20.30
2009,08,11,16,27,20.30
2009,08,11,16,28,20.30
2009,08,11,16,29,20.20
2009,08,11,16,30,20.20
2009,08,11,16,31,20.20
2009,08,11,16,32,20.20
2009,08,11,16,33,20.20
2009,08,11,16,34,20.20
2009,08,11,16,35,20.20
2009,08,11,16,36,20.20
2009,08,11,16,37,20.30
2009,08,11,16,38,20.30
2009,08,11,16,39,20.30
2009,08,11,16,40,20.30
2009,08,11,16,41,20.40
2009,08,11,16,42,20.40
2009,08,11,16,43,20.30
2009,08,11,16,44,20.30
2009,08,11,16,45,20.30
2009,08,11,16,46,20.20
2009,08,11,16,47,20.20
2009,08,11,16,48,20.20
2009,08,11,16,49,20.20
2009,08,11,16,50,20.20
2009,08,11,16,51,20.20
2009,08,11,16,52,20.20
2009,08,11,16,53,20.30
2009,08,11,16,54,20.30
2009,08,11,16,55,20.30
2009,08,11,16,56,20.30
2009,08,11,16,57,20.30
2009,08,11,16,58,20.30
2009,08,11,16,59,20.30
2009,08,11,17,00,20.30
2009,08,11,17,01,20.30
2009,08,11,17,02,20.40
2009,08,11,17,03,20.40
2009,08,11,17,04,20.50
2009,08,11,17,05,20.50
2009,08,11,17,06,20.50
2009,08,11,17,07,20.50
2009,08,11,17,08,20.40
2009,08,11,17,09,20.40
2009,08,11,17,10,20.40
2009,08,11,17,11,20.30
2009,08,11,17,12,20.30
2009,08,11,17,13,20.30
2009,08,11,17,14,20.40
2009,08,11,17,15,20.40
2009,08,11,17,16,20.30
2009,08,11,17,17,20.30
2009,08,11,17,18,20.30
2009,08,11,17,19,20.20
2009,08,11,17,20,20.20
2009,08,11,17,21,20.20
2009,08,11,17,22,20.10
2009,08,11,17,23,20.10
2009,08,11,17,24,20.00
2009,08,11,17,25,20.00
2009,08,11,17,26,19.90
2009,08,11,17,27,19.90
2009,08,11,17,28,19.90
2009,08,11,17,29,19.80
2009,08,11,17,30,19.80
2009,08,11,17,31,19.80
2009,08,11,17,32,19.80
2009,08,11,17,33,19.80
2009,08,11,17,34,19.80
2009,08,11,17,35,19.80
2009,08,11,17,36,19.80
2009,08,11,17,37,19.80
2009,08,11,17,38,19.80
2009,08,11,17,39,19.80
2009,08,11,17,40,19.80
2009,08,11,17,41,19.80
2009,08,11,17,42,19.80
2009,08,11,17,43,19.80
2009,08,11,17,44,19.90
2009,08,11,17,45,19.90
2009,08,11,17,46,19.90
2009,08,11,17,47,19.90
2009,08,11,17,48,19.90
2009,08,11,17,49,19.90
2009,08,11,17,50,19.90
2009,08,11,17,51,19.90
2009,08,11,17,52,19.90
2009,08,11,17,53,19.90
2009,08,11,17,54,20.00
2009,08,11,17,55,20.00
2009,08,11,17,56,20.00
2009,08,11,17,57,20.00
2009,08,11,17,58,20.00
2009,08,11,17,59,20.00
2009,08,11,18,00,20.00
2009,08,11,18,01,20.00
2009,08,11,18,02,20.00
2009,08,11,18,03,19.90
2009,08,11,18,04,19.90
2009,08,11,18,05,19.90
2009,08,11,18,06,19.90
2009,08,11,18,07,20.00
2009,08,11,18,08,20.00
2009,08,11,18,09,20.00
2009,08,11,18,10,20.10
2009,08,11,18,11,20.10
2009,08,11,18,12,20.10
2009,08,11,18,13,20.10
2009,08,11,18,14,20.20
2009,08,11,18,15,20.20
2009,08,11,18,16,20.20
2009,08,11,18,17,20.30
2009,08,11,18,18,20.30
2009,08,11,18,19,20.40
2009,08,11,18,20,20.40
2009,08,11,18,21,20.50
2009,08,11,18,22,20.50
2009,08,11,18,23,20.50
2009,08,11,18,24,20.50
2009,08,11,18,25,20.50
2009,08,11,18,26,20.40
2009,08,11,18,27,20.40
2009,08,11,18,28,20.40
2009,08,11,18,29,20.30
2009,08,11,18,30,20.30
2009,08,11,18,31,20.30
2009,08,11,18,32,20.30
2009,08,11,18,33,20.30
2009,08,11,18,34,20.30
2009,08,11,18,35,20.30
2009,08,11,18,36,20.30
2009,08,11,18,37,20.30
2009,08,11,18,38,20.30
2009,08,11,18,39,20.40
2009,08,11,18,40,20.40
2009,08,11,18,41,20.40
2009,08,11,18,42,20.40
2009,08,11,18,43,20.40
2009,08,11,18,44,20.40
2009,08,11,18,45,20.50
2009,08,11,18,46,20.50
2009,08,11,18,47,20.50
2009,08,11,18,48,20.60
2009,08,11,18,49,20.60
2009,08,11,18,50,20.60
2009,08,11,18,51,20.60
2009,08,11,18,52,20.60
2009,08,11,18,53,20.60
2009,08,11,18,54,20.60
2009,08,11,18,55,20.60
2009,08,11,18,56,20.60
2009,08,11,18,57,20.60
2009,08,11,18,58,20.60
2009,08,11,18,59,20.60
2009,08,11,19,00,20.60
2009,08,11,19,01,20.50
2009,08,11,19,02,20.50
2009,08,11,19,03,20.50
2009,08,11,19,04,20.50
2009,08,11,19,05,20.50
2009,08,11,19,06,20.50
2009,08,11,19,07,20.50
2009,08,11,19,08,20.50
2009,08,11,19,09,20.50
2009,08,11,19,10,20.50
2009,08,11,19,11,20.50
2009,08,11,19,12,20.50
2009,08,11,19,13,20.50
2009,08,11,19,14,20.50
2009,08,11,19,15,20.50
